DW1920 Weather Reports


time (UTC)temp
F
wind
direction
speed
knots
gust
knots
rain 1hr
in
rain 24hr
in
rain mn
in
humidity
%
barometer
mb
20260508091024 43 273 2.6 7.0 0.00 0.01 0.00 67 1005.4
20260508090003 43 266 3.5 6.1 0.00 0.01 0.00 67 1005.1
20260508085024 43 275 0.9 4.3 0.00 0.01 0.00 66 1005.0
20260508084002 44 279 2.6 6.1 0.00 0.01 0.00 64 1005.0
20260508083003 44 293 5.2 7.8 0.00 0.01 0.00 64 1005.1
20260508082002 43 297 4.3 8.7 0.00 0.01 0.00 65 1005.1
20260508081003 43 293 2.6 5.2 0.00 0.01 0.00 67 1005.0
20260508080004 43 314 2.6 4.3 0.00 0.01 0.00 66 1004.9
20260508075003 44 7 0.0 3.5 0.00 0.01 0.00 63 1004.9
20260508074003 44 332 1.7 3.5 0.00 0.01 0.00 62 1004.9
20260508073002 45 338 1.7 4.3 0.00 0.01 0.00 61 1004.7
20260508072003 45 314 1.7 7.0 0.00 0.01 0.00 60 1004.7
20260508071002 45 320 3.5 9.6 0.00 0.01 0.00 60 1004.7
20260508070003 45 300 6.1 10.4 0.00 0.01 0.00 60 1004.6
20260508065003 45 290 5.2 12.2 0.00 0.02 0.00 60 1004.6
20260508064002 46 298 7.8 12.2 0.00 0.02 0.00 59 1004.7
20260508063004 46 315 5.2 11.3 0.00 0.02 0.00 60 1004.7
20260508062002 46 302 6.1 8.7 0.00 0.02 0.00 59 1004.7
20260508061003 46 322 6.1 14.8 0.00 0.02 0.00 59 1004.8
20260508060003 46 318 4.3 12.2 0.00 0.02 0.00 58 1004.8
20260508055003 46 312 7.8 11.3 0.00 0.02 0.00 58 1004.9
20260508054003 46 326 6.1 9.6 0.00 0.02 0.00 58 1005.1
20260508053003 46 329 4.3 12.2 0.00 0.02 0.00 59 1005.2
20260508051003 46 290 6.1 11.3 0.00 0.05 0.00 61 1005.1
20260508050003 46 313 4.3 7.0 0.00 0.06 0.00 61 1005.2
20260508045003 46 329 1.7 8.7 0.00 0.06 0.00 60 1005.4
20260508044003 47 321 3.5 8.7 0.00 0.09 0.00 61 1005.5
20260508043024 47 322 2.6 7.8 0.00 0.13 0.00 62 1005.5
20260508042003 47 327 1.7 9.6 0.00 0.16 0.00 61 1005.4
20260508041003 47 312 4.3 7.8 0.00 0.16 0.00 58 1005.5
20260508040003 47 322 3.5 7.0 0.00 0.16 0.16 56 1005.5
20260508035003 48 343 3.5 6.1 0.00 0.16 0.16 55 1005.7
20260508034002 48 352 5.2 7.8 0.00 0.16 0.16 56 1005.6
20260508033003 49 340 5.2 10.4 0.00 0.16 0.16 56 1005.5
20260508032003 49 325 5.2 10.4 0.00 0.16 0.16 57 1005.5
20260508031003 49 319 5.2 10.4 0.00 0.16 0.16 54 1005.5
20260508030003 49 330 2.6 8.7 0.00 0.16 0.16 54 1005.7
20260508025003 49 350 3.5 8.7 0.00 0.16 0.16 54 1005.5
20260508024003 49 342 6.1 12.2 0.00 0.16 0.16 55 1005.3
20260508023002 50 330 5.2 10.4 0.00 0.16 0.16 54 1005.0
20260508022003 50 333 6.1 11.3 0.00 0.16 0.16 53 1005.1
20260508021002 50 355 3.5 10.4 0.00 0.16 0.16 54 1004.9
20260508020003 50 5 7.0 11.3 0.00 0.16 0.16 54 1004.9
20260508015003 51 351 5.2 10.4 0.00 0.16 0.16 54 1004.8
20260508014023 51 339 7.0 11.3 0.00 0.17 0.16 54 1004.8
20260508013003 51 346 6.1 11.3 0.00 0.17 0.16 56 1004.7
20260508012002 51 347 6.1 13.9 0.00 0.17 0.16 60 1004.7
20260508011024 50 339 5.2 10.4 0.00 0.18 0.16 68 1004.6
20260508010003 49 344 5.2 8.7 0.00 0.20 0.16 75 1004.6
20260508004003 47 329 4.3 7.0 0.00 0.25 0.16 83 1003.8
20260508003003 47 318 3.5 6.1 0.00 0.29 0.16 84 1003.9
20260508002003 47 288 3.5 6.1 0.00 0.32 0.16 85 1003.9
20260508001023 47 279 4.3 6.1 0.00 0.34 0.16 85 1003.8
20260508000003 47 268 3.5 6.1 0.00 0.36 0.16 85 1003.6
20260507235002 47 223 1.7 4.3 0.00 0.37 0.16 85 1003.6
20260507234024 48 226 0.9 7.0 0.00 0.40 0.16 84 1003.7
20260507233024 48 229 2.6 5.2 0.00 0.46 0.16 84 1003.5
20260507232003 49 222 0.9 7.0 0.00 0.54 0.16 84 1003.5
20260507231003 49 251 3.5 9.6 0.00 0.66 0.16 84 1003.1
20260507230024 49 244 2.6 5.2 0.00 0.73 0.16 83 1003.0
20260507225002 49 240 1.7 6.1 0.00 0.78 0.16 83 1003.0
20260507224003 49 244 4.3 11.3 0.00 0.85 0.16 83 1002.9
20260507223002 50 205 9.6 13.0 0.00 0.97 0.16 83 1002.6
20260507222003 50 216 6.1 10.4 0.00 1.08 0.16 84 1002.4
20260507221003 49 233 4.3 10.4 0.00 1.14 0.16 84 1002.4
20260507220002 50 230 5.2 13.0 0.00 1.23 0.16 82 1002.2
20260507215003 50 219 10.4 13.9 0.00 1.27 0.16 84 1002.2
20260507214003 50 216 10.4 14.8 0.00 1.29 0.16 83 1002.3
20260507213003 50 214 10.4 15.6 0.00 1.32 0.16 83 1002.3
20260507212003 50 216 10.4 14.8 0.00 1.33 0.16 82 1002.3
20260507211003 51 217 12.2 19.1 0.00 1.34 0.16 81 1002.3
20260507210003 51 212 11.3 16.5 0.00 1.36 0.16 81 1002.3
20260507205003 51 214 11.3 16.5 0.00 1.38 0.16 82 1002.2
20260507204003 51 215 11.3 15.6 0.00 1.39 0.16 82 1002.0
20260507203003 51 215 10.4 16.5 0.00 1.40 0.16 82 1002.0
20260507202002 51 215 11.3 17.4 0.00 1.40 0.16 82 1002.1
20260507201003 51 209 11.3 18.2 0.00 1.41 0.16 82 1002.2
20260507200024 51 216 11.3 17.4 0.00 1.42 0.16 82 1002.3
20260507195002 51 214 12.2 17.4 0.00 1.42 0.16 82 1002.3
20260507194003 51 206 13.9 17.4 0.00 1.42 0.16 80 1002.4
20260507193003 52 203 13.9 19.1 0.00 1.42 0.16 79 1002.5
20260507192003 52 204 15.6 19.1 0.00 1.42 0.16 78 1002.4
20260507191003 52 217 10.4 16.5 0.00 1.42 0.16 80 1002.5
20260507190004 52 215 10.4 14.8 0.00 1.42 0.16 80 1002.7
20260507185003 52 218 9.6 14.8 0.00 1.42 0.16 82 1002.7
20260507184024 52 217 6.1 10.4 0.00 1.42 0.16 83 1002.9
20260507183003 52 211 7.8 10.4 0.00 1.42 0.16 83 1003.0
20260507182003 52 215 7.0 13.9 0.00 1.42 0.16 83 1003.1
20260507180003 52 222 9.6 14.8 0.00 1.42 0.16 84 1003.1
20260507175002 52 222 12.2 15.6 0.00 1.42 0.16 85 1003.4
20260507174003 51 219 9.6 15.6 0.00 1.42 0.16 86 1003.6
20260507173004 51 221 11.3 14.8 0.00 1.42 0.16 86 1003.3
20260507172002 51 216 10.4 15.6 0.00 1.42 0.16 86 1003.3
20260507171003 52 221 7.8 13.9 0.00 1.42 0.16 86 1003.3
20260507170002 51 219 8.7 13.0 0.00 1.42 0.16 85 1003.4
20260507165003 52 217 9.6 13.0 0.00 1.42 0.16 84 1003.5
20260507164003 52 218 7.8 11.3 0.00 1.42 0.16 85 1003.5
20260507163045 52 225 9.6 12.2 0.00 1.42 0.16 85 1003.6
20260507162003 52 214 7.8 10.4 0.00 1.42 0.16 85 1004.0
20260507161025 52 226 9.6 12.2 0.00 1.42 0.16 86 1004.0
20260507160003 52 225 8.7 10.4 0.00 1.42 0.16 86 1004.1
20260507155003 52 221 6.1 9.6 0.00 1.42 0.16 87 1004.1
20260507154002 51 222 7.8 12.2 0.00 1.42 0.16 86 1004.2
20260507153003 51 219 9.6 13.0 0.00 1.42 0.16 87 1004.2
20260507152023 51 225 8.7 11.3 0.00 1.42 0.16 88 1004.2
20260507151003 51 219 6.1 8.7 0.00 1.42 0.16 87 1004.3
20260507150003 51 219 6.1 9.6 0.00 1.42 0.16 88 1004.3
20260507145024 51 218 6.1 8.7 0.00 1.42 0.16 88 1004.4
20260507144024 51 216 7.0 9.6 0.00 1.42 0.16 87 1004.5
20260507143002 51 209 5.2 8.7 0.00 1.42 0.16 87 1004.5
20260507142003 51 189 7.8 9.6 0.00 1.42 0.16 85 1004.5
20260507141024 52 184 7.8 9.6 0.00 1.42 0.16 84 1004.7
20260507140003 52 286 5.2 7.8 0.00 1.42 0.16 86 1004.6
20260507135003 52 297 5.2 9.6 0.00 1.42 0.16 87 1004.6
20260507134002 51 294 6.1 9.6 0.00 1.42 0.16 88 1004.5
20260507133003 51 303 5.2 9.6 0.00 1.42 0.16 89 1004.7
20260507132023 51 287 7.0 10.4 0.00 1.42 0.16 90 1004.8
20260507131003 50 286 7.0 11.3 0.00 1.42 0.16 91 1004.9
20260507130003 50 293 7.0 9.6 0.00 1.42 0.16 92 1005.1
20260507125003 49 286 6.1 10.4 0.00 1.42 0.16 92 1005.2
20260507124003 48 291 6.1 11.3 0.00 1.42 0.16 93 1005.1
20260507123002 48 300 6.1 9.6 0.00 1.42 0.16 94 1004.9
20260507122024 47 301 6.1 9.6 0.00 1.42 0.16 95 1004.9
20260507121024 47 288 6.1 10.4 0.00 1.42 0.16 95 1004.9
20260507120003 47 302 7.8 10.4 0.00 1.42 0.16 95 1004.5
20260507115003 47 294 6.1 9.6 0.00 1.42 0.16 95 1004.7
20260507114003 46 297 5.2 7.8 0.00 1.42 0.16 95 1004.8
20260507113004 47 287 5.2 7.8 0.00 1.42 0.16 95 1005.1
20260507112003 46 312 2.6 7.0 0.00 1.42 0.16 96 1005.1
20260507111002 46 330 2.6 7.8 0.00 1.42 0.16 96 1005.2
20260507110003 46 312 5.2 9.6 0.00 1.42 0.16 96 1005.0
20260507105003 46 294 7.0 8.7 0.00 1.42 0.16 95 1005.4
20260507104003 46 280 5.2 7.8 0.00 1.42 0.16 96 1006.0
20260507103003 46 288 6.1 8.7 0.00 1.42 0.16 95 1005.1
20260507102024 46 299 4.3 7.8 0.00 1.42 0.16 96 1005.0
20260507101002 46 294 6.1 8.7 0.00 1.42 0.16 96 1005.1
20260507100003 46 312 5.2 9.6 0.00 1.42 0.16 96 1004.6
20260507095002 46 303 6.1 9.6 0.01 1.42 0.16 96 1004.7
20260507094003 47 309 6.1 9.6 0.00 1.41 0.15 96 1004.5
20260507093003 47 311 7.0 11.3 0.00 1.41 0.15 96 1004.3
20260507092003 47 309 5.2 10.4 0.00 1.41 0.15 96 1004.6